Regional Weather Roundup
Issued by NWS Wakefield, VA

Home | Current Version | Previous Version | Graphics & Text | Print | Product List | Glossary On
Versions: 1 2 3 4 5 6 7 8 9 10 11 12 13 14 15 16 17 18 19 20 21 22 23 24 25 26 27 28 29 30 31 32 33 34 35 36 37 38 39 40 41 42 43 44 45 46 47 48 49 50
000
ASUS41 KAKQ 162010
RWRAKQ

REGIONAL WEATHER ROUNDUP
NATIONAL WEATHER SERVICE WAKEFIELD VA
400 PM EDT TUE SEP 16 2014

Note: "fair" indicates few or no clouds below 12,000 feet with no
significant weather and/or obstructions to visibility. * = Denotes
station may not report precipitation (e.g., rain,snow,etc.),
thunder or fog.

VAZ042-051-052>054-056-162100-
NORTHERN VIRGINIA

CITY           SKY/WX    TMP DP  RH WIND       PRES   REMARKS
WASH NATIONAL  PTSUNNY   77  49  37 N15       30.00S
DULLES         MOSUNNY   74  50  42 NW12G20   30.00F
FORT BELVOIR   MOSUNNY   76  53  44 W7        30.00S
QUANTICO       MOSUNNY   78  52  40 NW13      30.00S
FREDERICKSBRG* SUNNY     77  55  46 N6        29.98S
STAFFORD*      SUNNY     75  54  48 N10G17    30.03S
WARRENTON      MOSUNNY   79  59  50 NW8       30.00S
CULPEPER*      SUNNY     79  52  38 NW8       30.01S
MANASSAS*      NOT AVBL
LEESBURG*      PTSUNNY   77  54  44 N12       30.01S
WINCHESTER     MOSUNNY   75  46  35 W12       30.01F
FRONT ROYAL*   PTCLDY    72  50  46 NW5       30.01S
LURAY*         PTCLDY    73  50  43 NW7       30.02F
$$

VAZ048-049-060>072-079>083-162100-
CENTRAL AND SOUTH CENTRAL VIRGINIA...AND NORTH CENTRAL NORTH CAROLINA

CITY           SKY/WX    TMP DP  RH WIND       PRES   REMARKS
RICHMOND       PTSUNNY   81  58  45 CALM      29.96S
CHESTERFIELD*  CLOUDY    79  55  44 SW7       29.98F
PETERSBURG*    CLOUDY    80  57  45 SW3       29.98S
HANOVER        PTSUNNY   77  62  59 VRB6      29.99R
TAPPAHANNOCK*  PTSUNNY   77  56  49 N9        29.99R
CHARLOTTSVILLE MOSUNNY   78  56  46 N9        29.99F
ORANGE*        CLOUDY    73  54  49 N6        30.01S
LOUISA*        CLOUDY    73  59  60 NE6       29.98S
FARMVILLE*     CLOUDY    81  59  47 E5        29.96S
CREWE*         CLOUDY    81  63  53 CALM      29.98S
FORT PICKETT*  PTCLDY    78  60  53 W3        29.98F
LUNENBURG*     MOCLDY    78  62  56 CALM      29.98F
SOUTH HILL*    CLOUDY    82  63  51 W5        30.03F
LAWRENCEVILLE* MOCLDY    81  63  54 W3        29.98F
ROANOKE RAPIDS CLOUDY    79  63  57 CALM      29.98S
RALEIGH        PTSUNNY   82  62  50 NE7       29.98F
$$

VAZ088>098-162100-
SOUTHEAST VIRGINIA

CITY           SKY/WX    TMP DP  RH WIND       PRES   REMARKS
NORFOLK        SUNNY     78  61  55 NE7       29.97F
VIRGINIA BEACH MOSUNNY   80  60  50 N6        29.97S
NORFOLK NAVAL  PTSUNNY   80  62  54 CALM      29.98F
WEST POINT*    CLOUDY    81  56  43 CALM      29.98S
NEWPORT NEWS   PTSUNNY   83  63  50 CALM      29.97S
LANGLEY AFB    PTSUNNY   76  64  67 E5        29.97S
FORT EUSTIS    MOSUNNY   76  58  53 S5        29.95F
WILLIAMSBURG*  MOSUNNY   82  64  54 SE3       29.98S
HR EXEC AP*    PTCLDY    81  63  54 CALM      29.99S
FRANKLIN*        N/A     81  61  50 CALM      29.97S
WAKEFIELD      CLOUDY    81  63  54 CALM      29.97S
$$

VAZ020-022-025-037-045-162100-
WEST CENTRAL AND SOUTHWEST VIRGINIA

CITY           SKY/WX    TMP DP  RH WIND       PRES   REMARKS
STAUNTON*      PTSUNNY   74  53  48 N6        30.04S
HOT SPRINGS VA PTSUNNY   60  42  52 W8        30.13R
LYNCHBURG      MOSUNNY   77  59  53 NW7       30.01F
DANVILLE       CLOUDY    80  64  58 NE6       29.99F
SOUTH BOSTON*  NOT AVBL
MARTINSVILLE   CLOUDY    77  65  67 NE5       30.02S
ROANOKE        MOSUNNY   76  59  55 W8        30.03F
BLACKSBURG     SUNNY     72  63  73 NW8       30.08F
DUBLIN*        PTSUNNY   69  63  81 CALM      30.08F
MARION*        CLOUDY    70  61  73 N3        30.10F
HILLSVILLE*    CLOUDY    69  60  75 W14       30.08F
RICHLANDS*     MOCLDY    70  61  73 NW5       30.10F
WISE*          PTSUNNY   70  57  64 NW7       30.11F
ABINGDON*      PTSUNNY   72  64  74 N6        30.07F
$$

MDZ021>025-VAZ099-100-162100-
SOUTHERN MARYLAND AND THE DELMARVA PENINSULA

CITY           SKY/WX    TMP DP  RH WIND       PRES   REMARKS
PATUXENT RIVER MOSUNNY   77  56  48 N13       29.97F
BAY BRIDGE APT   N/A     72  52  49 N3        29.98S
LEONARDTOWN    MOSUNNY   73  54  49 NW6       30.00R
DOVER          PTSUNNY   75  57  54 N12       29.96R
GEORGETOWN     MOSUNNY   77  53  43 VRB7      29.97R
EASTON         MOSUNNY   75  57  53 N7        30.01F
CAMBRIDGE      MOSUNNY   77  55  47 W6        29.97F
SALISBURY      MOSUNNY   78  56  46 NW8       29.97R
OCEAN CITY     PTSUNNY   79  56  45 N10       29.96S
WALLOPS ISLAND MOSUNNY   79  58  48 N14G20    29.97R
ACCOMACK*      MOSUNNY   77  59  53 N10       29.97S
$$

NCZ012>017-030>032-162100-
EASTERN NORTH CAROLINA

CITY           SKY/WX    TMP DP  RH WIND       PRES   REMARKS
ELIZABETH CITY SUNNY     83  65  54 N7        29.96S
AHOSKIE*       MOSUNNY   77  67  70 CALM      29.97F
EDENTON*       SUNNY     82  64  52 NW9       29.96S
CURRITUCK*     SUNNY     81  61  51 NE8       29.97S
KILL DEVIL HLS MOSUNNY   79  67  68 N5        29.95S
MANTEO         SUNNY     80  66  61 N7        29.96S
CAPE HATTERAS  SUNNY     79  69  71 SW5       29.96F
TARBORO*       CLOUDY    82  64  55 CALM      29.98S
GOLDSBORO      MOSUNNY   84  68  58 CALM      29.95F
WASHINGTON     MOSUNNY   82  65  56 W5        29.96F
GREENVILLE     MOSUNNY   84  66  54 N5        29.98F
NEW BERN       SUNNY     88  66  48 W6        29.96F
WILMINGTON     MOSUNNY   82  72  71 VRB6      29.96F
$$

VAZ048-162100-
ELSEWHERE

CITY           SKY/WX    TMP DP  RH WIND       PRES   REMARKS
HARRISBURG PA  PTSUNNY   71  49  45 NW10      30.00S
BALTIMORE      PTSUNNY   73  52  47 NW10G18   29.99S
ANNAPOLIS      MOSUNNY   75  54  47 N6        29.98S
ANDREWS AFB    MOSUNNY   74  52  46 N13       29.99S
WILMINGTON DE  CLOUDY    73  56  54 N7        29.98F
PHILADELPHIA   PTSUNNY   74  54  49 N14       29.97F
WILDWOOD NJ*   MOSUNNY   73  54  49 NW7       29.97S
ATLANTIC CITY  MOSUNNY   73  56  54 N13       29.96S
HENDERSON NC   MOSUNNY   79  59  50 N3        29.99F
GREENSBORO     PTSUNNY   80  63  55 CALM      29.97F
ROCKY MOUNT    CLOUDY    81  63  54 NW3       29.97F
FAYETTEVILLE   PTSUNNY   86  66  51 NE7       29.96F
CHARLOTTE      MOSUNNY   85  63  47 VRB6      29.98F
$$

VAZ100-162100-
MARINE

STATION/POSITION TIME  TEMP    WIND        PRES    WAVE   SWELL
                       AIR SEA DIR/SP/G            HT/PER HT/PER
                 (UTC) (F)     (DEG/KT/KT) (MB)    (FT/S) (FT/S)
44066 TX TWR #4  2000   66 73   20/  8/ 10 1014.0S   2/ 8   2/ 8
CAPE MAY NJ      2000   74 76  320/ 12/ 16 1014.0S
LEWES DE         2000   72 73   10/ 13/ 15 1014.4R
15NM E FENWICK I 2000   72 72              1014.1S   3/ 4
OCEAN-CITY-INLET 2000   74 72   70/  8/ 11 1014.0R
WACHAPREAGUE VA  2000   77 75  340/  4/ 10 1014.8F
THOMAS POINT MD  2000   73 75  350/ 11/ 12 1016.0F
GOOSES REEF MD   2000   73      10/  8/ 10 1015.7F
COVE POINT MD    2000   72     360/ 10/ 13 1015.1R
SOLOMONS ISLAND  2000      76                N/A
BISHOPS HEAD MD  2000   76 75  360/  6/ 13 1014.4F
PINEY POINT MD   2000          340/ 12/ 14   N/A
POTOMAC MD       2000   74      40/ 10/ 14 1014.6R
CAMBRIDGE MD     2000   73 75  310/  7/ 11 1014.7F
LEWISETTA VA     2000   75 75  350/  8/ 11 1014.7R
RAPPAHANNOCK LGT 2000           10/  7/  8 1015.5F
STINGRAY PT      2000   74      60/  8/ 10   N/A
YORK RVR RNG VA  2000   74     100/  6/  6 1014.5S
YORKTOWN VA      2000   75 77   90/  8/  8 1014.5F
JAMESTOWN VA     2000   75     310/  2/  4   N/A
DOMINION TERM VA 2000   75     140/  4/  5 1015.0S
KIPTOPEKE VA     2000      80  310/  5/  7   N/A
CHES BAY BRIDGE  2000   74 76   50/  2/  4 1014.6S
CAPE HENRY VA    2000   74     360/  5/  7 1013.9S
CHESAPEAKE LGHT  1900   75     290/  7/  7 1015.6F
WILLOUBY STN VA  2000   74     100/  3/  4 1013.9S
S CRANEY ISL VA  2000           20/  2/  3 1014.7S
CAPE HENRY BUOY  2000      77                N/A     2/13   2/13
1ST LANDING BUOY 2000   75     360/  4/  6 1014.7S
CAPE CHARLES BUO 2000      76                N/A     2/12   2/12
OFFSHORE WE BUOY 2000      76                N/A     2/13   2/13
64NM E OF VA BCH 2000   74 79  330/ 12/ 14 1014.1F   2/12   2/12
DUCK PIER NC     2000   75 76   20/  8/ 10 1013.8S
44100 DUCK FRF   2000      75                N/A     2/13   2/13
44056 DUCK FRF   1900                        N/A     1/13   2/13
OREGON INLET NC  2000   78 76  110/  3/  5 1014.5S
HATTERAS NC      2000   80 78  180/  4/  7 1015.0F
DIAMOND SHLS NC  2000   77     280/  4/  6 1014.7F   2/ 8   2/ 8
CAPE LOOKOUT NC  1900   77     160/  6/  7 1014.9F
$$


USA.gov is the U.S. government's official web portal to all federal, state and local government web resources and services.